RH
95 88 86 87 87 86 88 91 91 93 91 83 83 77 84 84 83 87 84 87 86 85
83 95 84 84 88 87 95 91 92 89 93 90 89 86 85 82 88 92 89 85 88 81
83 94 90 94 95 96 95 91 95 94 94 91 88 87 88 85 85 87 87 87 90 90
87 92 88 91 96 96 94 92 93 92 92 92 93 87 91 85 87 89 82 83 86 86
81 92 91 90 91 92 94 92 87 91 91 90 91 92 90 89 85 90 90 88 87 85
93 97 95 90 89 89 88 88 89 86 87 90 88 88 89 88 89 88 89 86 86 84
97 97 96 93 89 90 88 88 88 86 84 84 84 86 86 90 88 88 90 89 87 84
95 95 94 92 88 89 91 91 89 90 90 87 83 81 85 83 88 88 88 87 88 87
85 90 94 93 92 90 88 88 89 92 92 92 89 92 93 86 82 82 84 85 83 82
82 83 86 86 88 92 96 95 94 92 91 91 90 100 98 96 83 80 85 86 85 86
78 79 80 82 86 89 92 94 96 95 93 92 89 100 100 100 93 86 83 85 86 87
77 80 82 83 85 86 90 90 94 94 95 93 95 96 95 97 98 96 93 87 85 86
80 84 88 88 88 86 86 90 89 89 89 90 90 94 95 94 96 98 97 94 92 100
81 82 82 85 87 87 88 87 91 92 92 90 92 91 91 94 96 100 99 98 97 97
Wind_Speed
8 7 7 8 6 7 8 7 9 10 12 14 14 13 10 8 7 6 8 8 5 4
10 7 7 7 6 6 4 7 8 9 10 11 12 12 12 9 9 7 7 9 7 5
9 7 8 8 9 8 5 6 8 9 8 8 10 11 11 9 8 10 9 9 9 7
8 8 7 8 7 7 7 7 8 9 10 9 9 10 9 10 10 12 13 12 12 12
10 8 6 6 7 8 9 8 9 8 9 10 10 9 11 11 10 12 13 13 12 14
10 8 7 9 7 7 7 8 9 10 10 10 11 12 12 13 12 12 13 14 15 16
7 8 8 6 9 8 9 9 9 9 11 12 12 12 12 12 13 13 12 14 15 15
7 6 6 6 7 8 8 8 9 10 11 11 12 11 14 14 15 15 16 15 14 15
12 7 3 4 8 9 11 12 12 12 12 12 10 13 17 16 14 15 16 16 16 16
11 10 10 9 9 10 8 5 11 13 13 15 15 14 16 18 15 14 14 16 16 15
11 11 11 10 10 9 8 7 6 8 9 11 11 9 10 19 17 17 18 17 18 18
10 11 10 11 11 9 8 7 8 9 12 12 12 21 18 11 10 14 18 18 19 18
9 10 11 10 10 9 7 8 7 10 11 16 12 22 19 13 4 9 10 13 14 9
10 10 11 10 9 9 8 8 8 9 8 10 13 14 23 21 5 1 5 8 9 10
Wind_Direction
175 173 168 166 173 189 188 173 159 166 170 177 180 198 186 190 197 186 189 187 193 194
193 176 178 165 174 197 173 164 160 168 172 179 186 193 190 191 190 175 189 202 187 191
196 169 165 167 176 177 173 173 159 172 171 176 185 189 187 196 207 204 206 212 192 196
187 179 166 171 168 171 170 176 176 177 181 188 186 189 191 204 200 203 214 217 212 208
192 175 178 174 170 176 180 184 188 182 187 192 196 197 203 207 206 207 212 216 216 222
183 172 186 180 181 181 182 182 190 195 198 198 202 205 207 209 211 211 213 215 217 221
182 187 190 189 178 187 195 200 202 204 205 206 204 210 212 216 223 224 222 222 224 224
198 183 202 204 202 192 196 213 221 218 217 216 215 210 211 216 220 225 230 231 228 230
43 44 352 268 224 219 221 218 220 221 223 224 225 219 212 213 216 220 225 233 236 238
37 39 28 20 28 30 1 285 233 229 226 232 234 224 222 218 231 230 226 230 234 235
31 34 27 23 16 9 3 1 350 349 313 266 247 350 265 219 225 233 236 233 235 237
22 30 24 20 10 2 356 2 7 25 28 19 40 14 5 356 251 240 240 239 241 242
27 35 30 17 8 358 359 22 30 46 37 31 28 13 5 355 326 278 264 256 260 340
30 38 30 28 22 15 19 36 41 55 43 38 28 21 19 11 345 340 71 47 32 22